Flag for U.S.A. Weather past 2 weeks in Montpelier, Vermont, U.S.A.

Now
60 °F

Clear.


Feels Like: 60 °F
Forecast: 58 / 80 °F
Wind: No wind

Location: Knapp State Airport

Current Time: Aug 30, 2015 at 6:07:01 AM

Latest Report: Aug 30, 2015 at 4:51 AM


Visibility: 10 mi

Pressure: 30.10 "Hg

Humidity: 90%

Dew point: 57 °F

Location of MontpelierLocation

Historic Weather in Montpelier — Graph

°F

Montpelier temperature yesterday

Maximum temperature yesterday: 75 °F (at 4:51 PM)
Minimum temperature yesterday: 52 °F (at 5:51 AM)
Average temperature yesterday: 62 °F

Past Weeks' High & Low Weather Summary

 TemperatureHumidityPressure
High87 °F (Aug 18, 3:51 PM)100% (Aug 16, 3:51 AM)30.26 "Hg (Aug 16, 3:51 AM)
Low48 °F (Aug 28, 5:04 AM)35% (Aug 19, 4:51 PM)29.86 "Hg (Aug 24, 4:51 PM)
Average68 °F78%30.08 "Hg
* Reported Aug 15 4:51 AM — Aug 30 4:51 AM, Montpelier, Weather by CustomWeather, © 2015

Note: Actual official high and low records may vary slightly from our data, if they occured in-between our weather recording intervals... More about our weather records

Advertising

Montpelier weather history for previous 24 hours

 ConditionsComfort  
Time TempWeatherWind HumidityBarometerVisibility
4:51 AM
Sun, Aug 30
60 °FClear.No wind90%30.10 "Hg10 mi
3:51 AM60 °FClear.No wind93%30.10 "Hg10 mi
2:51 AM62 °FClear.No wind90%30.10 "Hg10 mi
1:51 AM62 °FClear.No wind90%30.11 "Hg10 mi
12:51 AM61 °FClear.No wind90%30.11 "Hg10 mi
11:51 PM
Sat, Aug 29
63 °FClear.No wind84%30.12 "Hg10 mi
10:51 PM62 °FClear.3 mph86%30.13 "Hg10 mi
9:51 PM63 °FPassing clouds.No wind87%30.14 "Hg10 mi
8:51 PM64 °FClear.No wind81%30.13 "Hg10 mi
7:51 PM65 °FSunny.No wind81%30.12 "Hg10 mi
6:51 PM68 °FSunny.No wind73%30.12 "Hg10 mi
5:51 PM73 °FPassing clouds.5 mph51%30.13 "Hg10 mi
4:51 PM75 °FPassing clouds.3 mph48%30.13 "Hg10 mi
3:51 PM74 °FScattered clouds.5 mph52%30.15 "Hg10 mi
2:51 PM74 °FSunny.6 mph48%30.16 "Hg10 mi
1:51 PM74 °FScattered clouds.3 mph52%30.18 "Hg10 mi
12:51 PM72 °FScattered clouds.No wind57%30.19 "Hg10 mi
11:51 AM68 °FSunny.No wind61%30.22 "Hg10 mi
10:51 AM63 °FSunny.No wind81%30.23 "Hg10 mi
10:02 AM58 °FScattered clouds.No wind97%30.24 "Hg10 mi
8:51 AM53 °FFog.No wind100%30.25 "Hg0 mi
7:51 AM52 °FFog.No wind100%30.26 "Hg0 mi
6:51 AM52 °FFog.No wind97%30.24 "Hg0 mi
Weather by CustomWeather, © 2015

See weather overviewHow to use our weather pages